| time (UTC) | temp F | wind direction | speed MPH | gust MPH | rain 1hr in | rain 24hr in | rain mn in | humidity % | barometer mb |
| 20260905004816 | 95 | 72 | 0.0 | 0.0 | 0.00 | 0.00 | 0.00 | 43 | 1012.6 |
| 20260905004311 | 96 | 96 | 0.0 | 2.0 | 0.00 | 0.00 | 0.00 | 42 | 1012.5 |
| 20260905003806 | 96 | 181 | 1.0 | 3.0 | 0.00 | 0.00 | 0.00 | 42 | 1012.6 |
| 20260905003302 | 96 | 150 | 1.0 | 2.0 | 0.00 | 0.00 | 0.00 | 42 | 1012.5 |
| 20260905002758 | 96 | 24 | 1.0 | 3.0 | 0.00 | 0.00 | 0.00 | 42 | 1012.6 |
| 20260905002257 | 97 | 211 | 4.0 | 6.0 | 0.00 | 0.00 | 0.00 | 41 | 1012.7 |
| 20260905001752 | 97 | 66 | 2.0 | 3.0 | 0.00 | 0.00 | 0.00 | 41 | 1012.5 |
| 20260905001252 | 98 | 136 | 0.0 | 3.0 | 0.00 | 0.00 | 0.00 | 41 | 1012.6 |
| 20260905000747 | 98 | 184 | 1.0 | 4.0 | 0.00 | 0.00 | 0.00 | 40 | 1012.5 |
| 20260905000243 | 98 | 31 | 2.0 | 4.0 | 0.00 | 0.00 | 0.00 | 40 | 1012.6 |
| 20260904235738 | 98 | 107 | 2.0 | 4.0 | 0.00 | 0.00 | 0.00 | 40 | 1012.5 |
| 20260904235232 | 98 | 192 | 0.0 | 10.0 | 0.00 | 0.00 | 0.00 | 39 | 1012.5 |
| 20260904234727 | 100 | 169 | 7.0 | 9.0 | 0.00 | 0.00 | 0.00 | 39 | 1012.5 |
| 20260904234222 | 99 | 176 | 0.0 | 3.0 | 0.00 | 0.00 | 0.00 | 39 | 1012.5 |
| 20260904233718 | 99 | 50 | 2.0 | 3.0 | 0.00 | 0.00 | 0.00 | 38 | 1012.4 |
| 20260904233214 | 99 | 265 | 1.0 | 9.0 | 0.00 | 0.00 | 0.00 | 39 | 1012.6 |
| 20260904232711 | 100 | 184 | 3.0 | 8.0 | 0.00 | 0.00 | 0.00 | 38 | 1012.5 |
| 20260904232207 | 100 | 153 | 2.0 | 8.0 | 0.00 | 0.00 | 0.00 | 38 | 1012.4 |
| 20260904231701 | 100 | 89 | 1.0 | 2.0 | 0.00 | 0.00 | 0.00 | 37 | 1012.4 |
| 20260904231156 | 100 | 52 | 2.0 | 3.0 | 0.00 | 0.00 | 0.00 | 38 | 1012.4 |
| 20260904230651 | 100 | 74 | 1.0 | 2.0 | 0.00 | 0.00 | 0.00 | 38 | 1012.5 |
| 20260904230146 | 100 | 8 | 2.0 | 10.0 | 0.00 | 0.00 | 0.00 | 38 | 1012.3 |
| 20260904225644 | 99 | 212 | 1.0 | 7.0 | 0.00 | 0.00 | 0.00 | 39 | 1012.4 |
| 20260904225139 | 99 | 164 | 1.0 | 4.0 | 0.00 | 0.00 | 0.00 | 39 | 1012.4 |
| 20260904224633 | 100 | 177 | 2.0 | 6.0 | 0.00 | 0.00 | 0.00 | 38 | 1012.3 |
| 20260904224128 | 100 | 197 | 1.0 | 3.0 | 0.00 | 0.00 | 0.00 | 38 | 1012.3 |
| 20260904223627 | 100 | 199 | 4.0 | 4.0 | 0.00 | 0.00 | 0.00 | 38 | 1012.5 |
| 20260904223123 | 100 | 208 | 4.0 | 8.0 | 0.00 | 0.00 | 0.00 | 39 | 1012.2 |
| 20260904222619 | 101 | 86 | 1.0 | 2.0 | 0.00 | 0.00 | 0.00 | 37 | 1012.4 |
| 20260904222114 | 101 | 143 | 1.0 | 3.0 | 0.00 | 0.00 | 0.00 | 38 | 1012.4 |
| 20260904221613 | 101 | 202 | 1.0 | 2.0 | 0.00 | 0.00 | 0.00 | 37 | 1012.5 |
| 20260904221113 | 101 | 181 | 2.0 | 8.0 | 0.00 | 0.00 | 0.00 | 39 | 1012.4 |
| 20260904220608 | 99 | 201 | 5.0 | 11.0 | 0.00 | 0.00 | 0.00 | 40 | 1012.4 |
| 20260904215558 | 100 | 344 | 2.0 | 4.0 | 0.00 | 0.00 | 0.00 | 39 | 1012.5 |
| 20260904215053 | 101 | 175 | 1.0 | 2.0 | 0.00 | 0.00 | 0.00 | 38 | 1012.4 |
| 20260904214543 | 100 | 262 | 4.0 | 10.0 | 0.00 | 0.00 | 0.00 | 39 | 1012.4 |
| 20260904214039 | 101 | 188 | 3.0 | 6.0 | 0.00 | 0.00 | 0.00 | 38 | 1012.6 |
| 20260904213536 | 102 | 168 | 1.0 | 4.0 | 0.00 | 0.00 | 0.00 | 37 | 1012.7 |
| 20260904213034 | 103 | 191 | 5.0 | 6.0 | 0.00 | 0.00 | 0.00 | 36 | 1012.6 |
| 20260904212532 | 102 | 348 | 2.0 | 6.0 | 0.00 | 0.00 | 0.00 | 37 | 1012.7 |
| 20260904212028 | 101 | 205 | 3.0 | 7.0 | 0.00 | 0.00 | 0.00 | 38 | 1012.7 |
| 20260904211522 | 102 | 158 | 4.0 | 7.0 | 0.00 | 0.00 | 0.00 | 37 | 1012.8 |
| 20260904211018 | 103 | 138 | 2.0 | 7.0 | 0.00 | 0.00 | 0.00 | 37 | 1012.8 |
| 20260904210517 | 103 | 153 | 1.0 | 3.0 | 0.00 | 0.00 | 0.00 | 35 | 1012.7 |
| 20260904210013 | 104 | 189 | 4.0 | 9.0 | 0.00 | 0.00 | 0.00 | 35 | 1012.7 |
| 20260904205508 | 103 | 191 | 4.0 | 6.0 | 0.00 | 0.00 | 0.00 | 36 | 1012.8 |
| 20260904205005 | 101 | 214 | 3.0 | 8.0 | 0.00 | 0.00 | 0.00 | 36 | 1012.9 |
| 20260904204500 | 101 | 244 | 6.0 | 9.0 | 0.00 | 0.00 | 0.00 | 37 | 1013.1 |
| 20260904203956 | 102 | 199 | 7.0 | 9.0 | 0.00 | 0.00 | 0.00 | 37 | 1013.1 |
| 20260904203452 | 101 | 121 | 3.0 | 6.0 | 0.00 | 0.00 | 0.00 | 36 | 1013.2 |
| 20260904202948 | 102 | 215 | 4.0 | 13.0 | 0.00 | 0.00 | 0.00 | 36 | 1013.1 |
| 20260904202444 | 102 | 194 | 3.0 | 6.0 | 0.00 | 0.00 | 0.00 | 35 | 1013.2 |
| 20260904201940 | 102 | 96 | 2.0 | 7.0 | 0.00 | 0.00 | 0.00 | 36 | 1013.3 |
| 20260904201435 | 102 | 163 | 6.0 | 9.0 | 0.00 | 0.00 | 0.00 | 35 | 1013.5 |
| 20260904200931 | 102 | 205 | 4.0 | 10.0 | 0.00 | 0.00 | 0.00 | 35 | 1013.2 |
| 20260904200429 | 103 | 162 | 4.0 | 8.0 | 0.00 | 0.00 | 0.00 | 36 | 1013.5 |
| 20260904195924 | 101 | 7 | 0.0 | 4.0 | 0.00 | 0.00 | 0.00 | 35 | 1013.4 |
| 20260904195422 | 100 | 209 | 10.0 | 11.0 | 0.00 | 0.00 | 0.00 | 37 | 1013.6 |
| 20260904194921 | 100 | 220 | 5.0 | 9.0 | 0.00 | 0.00 | 0.00 | 37 | 1013.5 |
| 20260904194421 | 102 | 194 | 8.0 | 11.0 | 0.00 | 0.00 | 0.00 | 36 | 1013.7 |
| 20260904193917 | 101 | 173 | 3.0 | 7.0 | 0.00 | 0.00 | 0.00 | 37 | 1013.6 |
| 20260904193412 | 102 | 206 | 4.0 | 10.0 | 0.00 | 0.00 | 0.00 | 37 | 1013.5 |
| 20260904192907 | 101 | 103 | 2.0 | 8.0 | 0.00 | 0.00 | 0.00 | 37 | 1013.6 |
| 20260904192403 | 101 | 214 | 3.0 | 8.0 | 0.00 | 0.00 | 0.00 | 37 | 1013.8 |
| 20260904191859 | 100 | 177 | 6.0 | 10.0 | 0.00 | 0.00 | 0.00 | 38 | 1013.8 |
| 20260904191355 | 101 | 239 | 5.0 | 8.0 | 0.00 | 0.00 | 0.00 | 37 | 1013.8 |
| 20260904190852 | 100 | 217 | 4.0 | 9.0 | 0.00 | 0.00 | 0.00 | 38 | 1013.9 |
| 20260904190347 | 99 | 201 | 4.0 | 9.0 | 0.00 | 0.00 | 0.00 | 40 | 1013.9 |
| 20260904185843 | 99 | 174 | 6.0 | 13.0 | 0.00 | 0.00 | 0.00 | 39 | 1014.2 |
| 20260904185338 | 98 | 196 | 4.0 | 10.0 | 0.00 | 0.00 | 0.00 | 40 | 1014.1 |
| 20260904184838 | 99 | 183 | 11.0 | 16.0 | 0.00 | 0.00 | 0.00 | 40 | 1014.0 |
| 20260904184333 | 99 | 178 | 6.0 | 11.0 | 0.00 | 0.00 | 0.00 | 40 | 1014.1 |
| 20260904183828 | 100 | 251 | 1.0 | 8.0 | 0.00 | 0.00 | 0.00 | 39 | 1014.0 |
| 20260904183329 | 100 | 54 | 2.0 | 4.0 | 0.00 | 0.00 | 0.00 | 39 | 1014.2 |
| 20260904182824 | 99 | 318 | 2.0 | 4.0 | 0.00 | 0.00 | 0.00 | 40 | 1014.2 |
| 20260904182319 | 98 | 18 | 3.0 | 11.0 | 0.00 | 0.00 | 0.00 | 41 | 1014.6 |
| 20260904181815 | 96 | 41 | 1.0 | 9.0 | 0.00 | 0.00 | 0.00 | 44 | 1014.3 |
| 20260904181314 | 98 | 182 | 9.0 | 15.0 | 0.00 | 0.00 | 0.00 | 44 | 1014.6 |
| 20260904180809 | 97 | 120 | 4.0 | 9.0 | 0.00 | 0.00 | 0.00 | 44 | 1014.6 |
| 20260904180305 | 95 | 220 | 3.0 | 7.0 | 0.00 | 0.00 | 0.00 | 45 | 1014.7 |
| 20260904175804 | 95 | 217 | 4.0 | 8.0 | 0.00 | 0.00 | 0.00 | 46 | 1014.7 |
| 20260904175305 | 96 | 196 | 9.0 | 11.0 | 0.00 | 0.00 | 0.00 | 46 | 1014.8 |
| 20260904174758 | 95 | 205 | 5.0 | 9.0 | 0.00 | 0.00 | 0.00 | 47 | 1014.8 |
| 20260904174254 | 94 | 186 | 7.0 | 8.0 | 0.00 | 0.00 | 0.00 | 48 | 1014.9 |
| 20260904173749 | 96 | 194 | 7.0 | 9.0 | 0.00 | 0.00 | 0.00 | 47 | 1015.0 |
| 20260904173244 | 96 | 196 | 2.0 | 10.0 | 0.00 | 0.00 | 0.00 | 47 | 1015.0 |
| 20260904172741 | 94 | 175 | 3.0 | 8.0 | 0.00 | 0.00 | 0.00 | 48 | 1015.2 |
| 20260904172239 | 93 | 194 | 5.0 | 11.0 | 0.00 | 0.00 | 0.00 | 49 | 1015.2 |
| 20260904171734 | 94 | 214 | 5.0 | 8.0 | 0.00 | 0.00 | 0.00 | 48 | 1015.1 |
| 20260904171229 | 94 | 164 | 8.0 | 10.0 | 0.00 | 0.00 | 0.00 | 49 | 1015.4 |
| 20260904170725 | 94 | 204 | 4.0 | 7.0 | 0.00 | 0.00 | 0.00 | 49 | 1015.4 |
| 20260904170221 | 93 | 226 | 3.0 | 7.0 | 0.00 | 0.00 | 0.00 | 50 | 1015.5 |
| 20260904165720 | 93 | 200 | 5.0 | 14.0 | 0.00 | 0.00 | 0.00 | 50 | 1015.5 |
| 20260904165215 | 93 | 181 | 0.0 | 10.0 | 0.00 | 0.00 | 0.00 | 50 | 1015.5 |
| 20260904164709 | 93 | 159 | 2.0 | 6.0 | 0.00 | 0.00 | 0.00 | 51 | 1015.4 |
| 20260904164204 | 94 | 18 | 1.0 | 6.0 | 0.00 | 0.00 | 0.00 | 49 | 1015.4 |
| 20260904163700 | 94 | 125 | 2.0 | 7.0 | 0.00 | 0.00 | 0.00 | 50 | 1015.5 |
| 20260904163155 | 92 | 66 | 2.0 | 6.0 | 0.00 | 0.00 | 0.00 | 52 | 1015.6 |
| 20260904162654 | 91 | 152 | 4.0 | 9.0 | 0.00 | 0.00 | 0.00 | 53 | 1015.5 |
| 20260904162149 | 92 | 81 | 3.0 | 9.0 | 0.00 | 0.00 | 0.00 | 54 | 1015.4 |
| 20260904161645 | 90 | 165 | 3.0 | 11.0 | 0.00 | 0.00 | 0.00 | 55 | 1015.5 |
| 20260904161140 | 91 | 144 | 1.0 | 8.0 | 0.00 | 0.00 | 0.00 | 55 | 1015.5 |
| 20260904160636 | 90 | 24 | 1.0 | 4.0 | 0.00 | 0.00 | 0.00 | 56 | 1015.4 |
| 20260904160131 | 90 | 155 | 4.0 | 6.0 | 0.00 | 0.00 | 0.00 | 56 | 1015.4 |
| 20260904155626 | 91 | 174 | 4.0 | 7.0 | 0.00 | 0.00 | 0.00 | 56 | 1015.5 |
| 20260904155119 | 89 | 196 | 1.0 | 10.0 | 0.00 | 0.00 | 0.00 | 57 | 1015.3 |
| 20260904154614 | 89 | 78 | 4.0 | 8.0 | 0.00 | 0.00 | 0.00 | 58 | 1015.3 |
| 20260904154113 | 89 | 182 | 6.0 | 10.0 | 0.00 | 0.00 | 0.00 | 58 | 1015.0 |
| 20260904153608 | 87 | 177 | 6.0 | 9.0 | 0.00 | 0.00 | 0.00 | 61 | 1015.2 |
| 20260904153104 | 87 | 168 | 3.0 | 13.0 | 0.00 | 0.00 | 0.00 | 60 | 1015.3 |
| 20260904152600 | 88 | 183 | 2.0 | 6.0 | 0.00 | 0.00 | 0.00 | 60 | 1015.5 |
| 20260904152055 | 86 | 89 | 1.0 | 9.0 | 0.00 | 0.00 | 0.00 | 62 | 1015.3 |
| 20260904151550 | 86 | 180 | 2.0 | 4.0 | 0.00 | 0.00 | 0.00 | 63 | 1015.3 |
| 20260904151049 | 85 | 203 | 5.0 | 9.0 | 0.00 | 0.00 | 0.00 | 64 | 1015.4 |
| 20260904150544 | 85 | 209 | 7.0 | 11.0 | 0.00 | 0.00 | 0.00 | 65 | 1015.3 |
| 20260904150039 | 85 | 172 | 4.0 | 10.0 | 0.00 | 0.00 | 0.00 | 65 | 1015.3 |
| 20260904145538 | 84 | 166 | 5.0 | 8.0 | 0.00 | 0.00 | 0.00 | 66 | 1015.3 |
| 20260904145033 | 84 | 179 | 7.0 | 11.0 | 0.00 | 0.00 | 0.00 | 66 | 1015.2 |
| 20260904144530 | 84 | 139 | 3.0 | 7.0 | 0.00 | 0.00 | 0.00 | 67 | 1015.5 |
| 20260904144026 | 84 | 169 | 4.0 | 7.0 | 0.00 | 0.00 | 0.00 | 67 | 1015.3 |
| 20260904143521 | 83 | 196 | 6.0 | 9.0 | 0.00 | 0.00 | 0.00 | 69 | 1015.2 |
| 20260904143018 | 83 | 172 | 2.0 | 11.0 | 0.00 | 0.00 | 0.00 | 69 | 1015.4 |
| 20260904142513 | 82 | 192 | 2.0 | 6.0 | 0.00 | 0.00 | 0.00 | 70 | 1015.2 |
| 20260904142013 | 82 | 173 | 1.0 | 6.0 | 0.00 | 0.00 | 0.00 | 70 | 1015.3 |
| 20260904141509 | 82 | 195 | 6.0 | 8.0 | 0.00 | 0.00 | 0.00 | 70 | 1015.4 |
| 20260904141004 | 81 | 166 | 2.0 | 6.0 | 0.00 | 0.00 | 0.00 | 71 | 1015.3 |
| 20260904140459 | 81 | 219 | 5.0 | 7.0 | 0.00 | 0.00 | 0.00 | 72 | 1015.2 |
| 20260904135957 | 81 | 190 | 3.0 | 3.0 | 0.00 | 0.00 | 0.00 | 71 | 1015.3 |
| 20260904135452 | 80 | 190 | 4.0 | 6.0 | 0.00 | 0.00 | 0.00 | 72 | 1015.4 |
| 20260904134948 | 80 | 346 | 2.0 | 13.0 | 0.00 | 0.00 | 0.00 | 73 | 1015.5 |
| 20260904134443 | 81 | 137 | 1.0 | 3.0 | 0.00 | 0.00 | 0.00 | 71 | 1015.5 |
| 20260904133937 | 80 | 196 | 3.0 | 6.0 | 0.00 | 0.00 | 0.00 | 72 | 1015.5 |
| 20260904133432 | 80 | 134 | 0.0 | 4.0 | 0.00 | 0.00 | 0.00 | 73 | 1015.3 |
| 20260904132928 | 80 | 172 | 1.0 | 2.0 | 0.00 | 0.00 | 0.00 | 72 | 1015.2 |
| 20260904132423 | 79 | 73 | 1.0 | 3.0 | 0.00 | 0.00 | 0.00 | 73 | 1015.2 |
| 20260904131922 | 79 | 181 | 4.0 | 6.0 | 0.00 | 0.00 | 0.00 | 74 | 1015.3 |
| 20260904131418 | 79 | 177 | 2.0 | 3.0 | 0.00 | 0.00 | 0.00 | 75 | 1015.4 |
| 20260904130914 | 78 | 170 | 3.0 | 8.0 | 0.00 | 0.00 | 0.00 | 75 | 1015.3 |
| 20260904130412 | 78 | 233 | 1.0 | 7.0 | 0.00 | 0.00 | 0.00 | 75 | 1015.2 |
| 20260904125907 | 78 | 218 | 2.0 | 3.0 | 0.00 | 0.00 | 0.00 | 76 | 1015.1 |
| 20260904125404 | 78 | 105 | 2.0 | 2.0 | 0.00 | 0.00 | 0.00 | 76 | 1015.0 |
| 20260904124903 | 78 | 198 | 0.0 | 2.0 | 0.00 | 0.00 | 0.00 | 76 | 1015.2 |
| 20260904124400 | 77 | 63 | 0.0 | 2.0 | 0.00 | 0.00 | 0.00 | 77 | 1014.9 |
| 20260904123855 | 77 | 48 | 0.0 | 2.0 | 0.00 | 0.00 | 0.00 | 78 | 1015.0 |
| 20260904123350 | 77 | 148 | 0.0 | 1.0 | 0.00 | 0.00 | 0.00 | 78 | 1014.9 |
| 20260904122845 | 77 | 142 | 0.0 | 2.0 | 0.00 | 0.00 | 0.00 | 78 | 1014.6 |
| 20260904122344 | 77 | 158 | 3.0 | 4.0 | 0.00 | 0.00 | 0.00 | 79 | 1014.8 |
| 20260904121839 | 77 | 166 | 0.0 | 2.0 | 0.00 | 0.00 | 0.00 | 79 | 1014.7 |
| 20260904121336 | 77 | 136 | 0.0 | 3.0 | 0.00 | 0.00 | 0.00 | 79 | 1014.8 |
| 20260904120832 | 77 | 146 | 1.0 | 3.0 | 0.00 | 0.00 | 0.00 | 79 | 1014.6 |
| 20260904120327 | 77 | 178 | 2.0 | 3.0 | 0.00 | 0.00 | 0.00 | 78 | 1014.6 |
| 20260904115822 | 77 | 130 | 0.0 | 3.0 | 0.00 | 0.00 | 0.00 | 78 | 1014.4 |
| 20260904115318 | 77 | 146 | 0.0 | 3.0 | 0.00 | 0.00 | 0.00 | 78 | 1014.6 |
| 20260904114818 | 77 | 201 | 1.0 | 2.0 | 0.00 | 0.00 | 0.00 | 79 | 1014.7 |
| 20260904114312 | 77 | 107 | 0.0 | 2.0 | 0.00 | 0.00 | 0.00 | 79 | 1014.4 |
| 20260904113808 | 77 | 163 | 0.0 | 0.0 | 0.00 | 0.00 | 0.00 | 79 | 1014.3 |
| 20260904113307 | 77 | 11 | 1.0 | 4.0 | 0.00 | 0.00 | 0.00 | 78 | 1014.4 |
| 20260904112801 | 77 | 186 | 0.0 | 2.0 | 0.00 | 0.00 | 0.00 | 78 | 1014.4 |
| 20260904112257 | 77 | 135 | 1.0 | 2.0 | 0.00 | 0.00 | 0.00 | 78 | 1014.4 |
| 20260904111753 | 77 | 214 | 3.0 | 7.0 | 0.00 | 0.00 | 0.00 | 78 | 1014.4 |
| 20260904111248 | 77 | 95 | 0.0 | 1.0 | 0.00 | 0.00 | 0.00 | 78 | 1014.3 |
| 20260904110744 | 77 | 75 | 0.0 | 1.0 | 0.00 | 0.00 | 0.00 | 78 | 1014.6 |
| 20260904110243 | 77 | 163 | 0.0 | 7.0 | 0.00 | 0.00 | 0.00 | 78 | 1014.4 |
| 20260904105738 | 77 | 143 | 1.0 | 2.0 | 0.00 | 0.00 | 0.00 | 78 | 1014.3 |
| 20260904105233 | 77 | 112 | 0.0 | 0.0 | 0.00 | 0.00 | 0.00 | 77 | 1014.3 |
| 20260904104728 | 77 | 143 | 0.0 | 2.0 | 0.00 | 0.00 | 0.00 | 77 | 1014.3 |
| 20260904104223 | 78 | 135 | 0.0 | 0.0 | 0.00 | 0.00 | 0.00 | 76 | 1014.4 |
| 20260904103721 | 78 | 129 | 0.0 | 2.0 | 0.00 | 0.00 | 0.00 | 76 | 1014.4 |
| 20260904103215 | 78 | 149 | 0.0 | 1.0 | 0.00 | 0.00 | 0.00 | 76 | 1014.4 |
| 20260904102710 | 78 | 106 | 1.0 | 1.0 | 0.00 | 0.00 | 0.00 | 76 | 1014.4 |
| 20260904102205 | 78 | 137 | 0.0 | 1.0 | 0.00 | 0.00 | 0.00 | 76 | 1014.4 |
| 20260904101657 | 78 | 91 | 0.0 | 1.0 | 0.00 | 0.00 | 0.00 | 75 | 1014.6 |
| 20260904101152 | 79 | 134 | 0.0 | 1.0 | 0.00 | 0.00 | 0.00 | 74 | 1014.4 |
| 20260904100648 | 79 | 135 | 1.0 | 2.0 | 0.00 | 0.00 | 0.00 | 72 | 1014.3 |
| 20260904100143 | 79 | 80 | 1.0 | 2.0 | 0.00 | 0.00 | 0.00 | 72 | 1014.3 |
| 20260904095643 | 79 | 110 | 0.0 | 2.0 | 0.00 | 0.00 | 0.00 | 71 | 1014.3 |
| 20260904095137 | 80 | 348 | 0.0 | 1.0 | 0.00 | 0.00 | 0.00 | 70 | 1014.4 |
| 20260904094632 | 80 | 170 | 5.0 | 7.0 | 0.00 | 0.00 | 0.00 | 69 | 1014.3 |
| 20260904094127 | 80 | 197 | 8.0 | 11.0 | 0.00 | 0.00 | 0.00 | 69 | 1014.3 |
| 20260904093624 | 80 | 178 | 4.0 | 7.0 | 0.00 | 0.00 | 0.00 | 70 | 1014.4 |
| 20260904093124 | 80 | 225 | 1.0 | 3.0 | 0.00 | 0.00 | 0.00 | 70 | 1014.2 |
| 20260904092620 | 80 | 194 | 5.0 | 7.0 | 0.00 | 0.00 | 0.00 | 70 | 1014.1 |
| 20260904092116 | 80 | 186 | 7.0 | 9.0 | 0.00 | 0.00 | 0.00 | 70 | 1014.2 |
| 20260904091612 | 80 | 174 | 2.0 | 4.0 | 0.00 | 0.00 | 0.00 | 70 | 1014.2 |
| 20260904091111 | 80 | 135 | 2.0 | 7.0 | 0.00 | 0.00 | 0.00 | 69 | 1014.2 |
| 20260904090607 | 80 | 190 | 4.0 | 10.0 | 0.00 | 0.00 | 0.00 | 69 | 1014.0 |
| 20260904085603 | 80 | 243 | 1.0 | 7.0 | 0.00 | 0.00 | 0.00 | 69 | 1014.3 |
| 20260904085057 | 80 | 104 | 1.0 | 6.0 | 0.00 | 0.00 | 0.00 | 70 | 1014.2 |
| 20260904084553 | 80 | 182 | 5.0 | 6.0 | 0.00 | 0.00 | 0.00 | 71 | 1014.2 |
| 20260904084049 | 80 | 226 | 5.0 | 8.0 | 0.00 | 0.00 | 0.00 | 71 | 1014.3 |
| 20260904083545 | 80 | 105 | 0.0 | 3.0 | 0.00 | 0.00 | 0.00 | 74 | 1014.2 |
| 20260904083040 | 80 | 203 | 2.0 | 3.0 | 0.00 | 0.00 | 0.00 | 73 | 1014.0 |
| 20260904082535 | 80 | 189 | 4.0 | 4.0 | 0.00 | 0.00 | 0.00 | 74 | 1014.1 |
| 20260904082036 | 80 | 154 | 0.0 | 1.0 | 0.00 | 0.00 | 0.00 | 74 | 1014.0 |
| 20260904081531 | 80 | 154 | 2.0 | 2.0 | 0.00 | 0.00 | 0.00 | 74 | 1014.0 |
| 20260904081027 | 80 | 233 | 1.0 | 2.0 | 0.00 | 0.00 | 0.00 | 73 | 1013.9 |
| 20260904080522 | 80 | 132 | 1.0 | 6.0 | 0.00 | 0.00 | 0.00 | 73 | 1014.1 |
| 20260904080018 | 81 | 150 | 1.0 | 4.0 | 0.00 | 0.00 | 0.00 | 73 | 1013.8 |
| 20260904075514 | 81 | 204 | 4.0 | 7.0 | 0.00 | 0.00 | 0.00 | 73 | 1013.5 |
| 20260904075009 | 81 | 235 | 1.0 | 4.0 | 0.00 | 0.00 | 0.00 | 73 | 1013.8 |
| 20260904074503 | 80 | 211 | 4.0 | 9.0 | 0.00 | 0.00 | 0.00 | 73 | 1013.8 |
| 20260904073958 | 80 | 166 | 3.0 | 4.0 | 0.00 | 0.00 | 0.00 | 74 | 1013.9 |
| 20260904073454 | 80 | 132 | 3.0 | 4.0 | 0.00 | 0.00 | 0.00 | 75 | 1013.9 |
| 20260904072949 | 80 | 158 | 2.0 | 6.0 | 0.00 | 0.00 | 0.00 | 75 | 1014.0 |
| 20260904072445 | 80 | 197 | 5.0 | 9.0 | 0.00 | 0.00 | 0.00 | 75 | 1014.0 |
| 20260904071944 | 80 | 220 | 2.0 | 4.0 | 0.00 | 0.00 | 0.00 | 75 | 1014.1 |
| 20260904071440 | 80 | 147 | 2.0 | 3.0 | 0.00 | 0.00 | 0.00 | 75 | 1014.2 |
| 20260904070935 | 80 | 175 | 2.0 | 7.0 | 0.00 | 0.00 | 0.00 | 75 | 1014.0 |
| 20260904070433 | 80 | 338 | 1.0 | 2.0 | 0.00 | 0.00 | 0.00 | 75 | 1014.1 |
| 20260904065929 | 80 | 144 | 2.0 | 4.0 | 0.00 | 0.00 | 0.00 | 74 | 1014.0 |
| 20260904065425 | 80 | 162 | 3.0 | 6.0 | 0.00 | 0.00 | 0.00 | 74 | 1014.3 |
| 20260904064925 | 80 | 227 | 2.0 | 4.0 | 0.00 | 0.00 | 0.00 | 74 | 1014.1 |
| 20260904064421 | 80 | 145 | 0.0 | 3.0 | 0.00 | 0.00 | 0.00 | 74 | 1014.2 |
| 20260904063915 | 80 | 149 | 0.0 | 1.0 | 0.00 | 0.00 | 0.00 | 74 | 1014.3 |
| 20260904063413 | 81 | 187 | 1.0 | 2.0 | 0.00 | 0.00 | 0.00 | 74 | 1014.2 |
| 20260904062907 | 81 | 34 | 0.0 | 3.0 | 0.00 | 0.00 | 0.00 | 74 | 1014.4 |
| 20260904062403 | 81 | 154 | 2.0 | 4.0 | 0.00 | 0.00 | 0.00 | 74 | 1014.1 |
| 20260904061859 | 81 | 262 | 0.0 | 3.0 | 0.00 | 0.00 | 0.00 | 74 | 1014.2 |
| 20260904061355 | 81 | 208 | 3.0 | 7.0 | 0.00 | 0.00 | 0.00 | 73 | 1014.4 |
| 20260904060851 | 81 | 165 | 1.0 | 4.0 | 0.00 | 0.00 | 0.00 | 73 | 1014.3 |
| 20260904060347 | 81 | 176 | 1.0 | 3.0 | 0.00 | 0.00 | 0.00 | 73 | 1014.4 |
| 20260904055842 | 81 | 271 | 2.0 | 3.0 | 0.00 | 0.00 | 0.00 | 73 | 1014.3 |
| 20260904055337 | 81 | 171 | 1.0 | 2.0 | 0.00 | 0.00 | 0.00 | 73 | 1014.6 |
| 20260904054832 | 81 | 175 | 1.0 | 4.0 | 0.00 | 0.00 | 0.00 | 72 | 1014.4 |
| 20260904054328 | 81 | 228 | 1.0 | 4.0 | 0.00 | 0.00 | 0.00 | 72 | 1014.2 |
| 20260904053824 | 81 | 111 | 2.0 | 4.0 | 0.00 | 0.00 | 0.00 | 72 | 1014.2 |
| 20260904053323 | 82 | 197 | 3.0 | 7.0 | 0.00 | 0.00 | 0.00 | 72 | 1014.4 |
| 20260904052819 | 82 | 171 | 1.0 | 3.0 | 0.00 | 0.00 | 0.00 | 71 | 1014.2 |
| 20260904052315 | 82 | 236 | 4.0 | 6.0 | 0.00 | 0.00 | 0.00 | 71 | 1014.2 |
| 20260904051812 | 82 | 224 | 2.0 | 2.0 | 0.00 | 0.00 | 0.00 | 71 | 1014.3 |
| 20260904051307 | 82 | 186 | 3.0 | 13.0 | 0.00 | 0.00 | 0.00 | 71 | 1014.2 |
| 20260904050802 | 82 | 230 | 2.0 | 4.0 | 0.00 | 0.00 | 0.00 | 71 | 1014.0 |
| 20260904050259 | 82 | 180 | 1.0 | 4.0 | 0.00 | 0.00 | 0.00 | 70 | 1014.1 |
| 20260904045759 | 82 | 139 | 3.0 | 4.0 | 0.00 | 0.00 | 0.00 | 70 | 1014.1 |
| 20260904045253 | 82 | 212 | 4.0 | 4.0 | 0.00 | 0.00 | 0.00 | 70 | 1014.1 |
| 20260904044748 | 82 | 221 | 1.0 | 6.0 | 0.00 | 0.00 | 0.00 | 69 | 1014.1 |
| 20260904044245 | 83 | 205 | 1.0 | 7.0 | 0.00 | 0.00 | 0.00 | 69 | 1014.1 |
| 20260904043740 | 83 | 107 | 2.0 | 8.0 | 0.00 | 0.00 | 0.00 | 69 | 1014.2 |
| 20260904043237 | 83 | 188 | 2.0 | 2.0 | 0.00 | 0.00 | 0.00 | 69 | 1014.2 |
| 20260904042732 | 83 | 108 | 2.0 | 9.0 | 0.00 | 0.00 | 0.00 | 68 | 1014.1 |
| 20260904042228 | 83 | 195 | 2.0 | 8.0 | 0.00 | 0.00 | 0.00 | 68 | 1014.3 |
| 20260904041727 | 83 | 171 | 2.0 | 6.0 | 0.00 | 0.00 | 0.00 | 68 | 1014.4 |
| 20260904041224 | 83 | 149 | 1.0 | 2.0 | 0.00 | 0.00 | 0.00 | 68 | 1014.2 |
| 20260904040720 | 83 | 188 | 5.0 | 6.0 | 0.00 | 0.00 | 0.00 | 67 | 1014.4 |
| 20260904040215 | 84 | 137 | 0.0 | 4.0 | 0.00 | 0.00 | 0.00 | 67 | 1014.6 |
| 20260904035711 | 84 | 200 | 1.0 | 2.0 | 0.00 | 0.00 | 0.00 | 66 | 1014.4 |
| 20260904035206 | 84 | 107 | 2.0 | 4.0 | 0.00 | 0.00 | 0.00 | 66 | 1014.6 |
| 20260904034705 | 84 | 350 | 0.0 | 2.0 | 0.00 | 0.00 | 0.00 | 66 | 1014.7 |
| 20260904034201 | 84 | 174 | 6.0 | 7.0 | 0.00 | 0.00 | 0.00 | 65 | 1014.4 |
| 20260904033656 | 84 | 160 | 3.0 | 3.0 | 0.00 | 0.00 | 0.00 | 65 | 1014.3 |
| 20260904033153 | 84 | 152 | 2.0 | 4.0 | 0.00 | 0.00 | 0.00 | 65 | 1014.3 |
| 20260904032649 | 84 | 176 | 1.0 | 2.0 | 0.00 | 0.00 | 0.00 | 65 | 1014.2 |
| 20260904032148 | 85 | 45 | 0.0 | 2.0 | 0.00 | 0.00 | 0.00 | 64 | 1014.3 |
| 20260904031642 | 85 | 170 | 2.0 | 6.0 | 0.00 | 0.00 | 0.00 | 64 | 1014.6 |
| 20260904031138 | 85 | 119 | 2.0 | 4.0 | 0.00 | 0.00 | 0.00 | 64 | 1014.3 |
| 20260904030633 | 85 | 195 | 1.0 | 2.0 | 0.00 | 0.00 | 0.00 | 63 | 1014.3 |
| 20260904030128 | 85 | 177 | 0.0 | 4.0 | 0.00 | 0.00 | 0.00 | 63 | 1014.3 |
| 20260904025624 | 85 | 102 | 2.0 | 4.0 | 0.00 | 0.00 | 0.00 | 63 | 1014.1 |
| 20260904025119 | 85 | 105 | 1.0 | 1.0 | 0.00 | 0.00 | 0.00 | 63 | 1014.1 |
| 20260904024614 | 86 | 64 | 1.0 | 2.0 | 0.00 | 0.00 | 0.00 | 62 | 1014.1 |
| 20260904024109 | 86 | 178 | 1.0 | 1.0 | 0.00 | 0.00 | 0.00 | 62 | 1014.2 |
| 20260904023606 | 86 | 35 | 1.0 | 7.0 | 0.00 | 0.00 | 0.00 | 62 | 1013.9 |
| 20260904023101 | 86 | 212 | 2.0 | 4.0 | 0.00 | 0.00 | 0.00 | 62 | 1013.9 |
| 20260904022556 | 86 | 195 | 1.0 | 2.0 | 0.00 | 0.00 | 0.00 | 61 | 1013.8 |
| 20260904022053 | 86 | 87 | 1.0 | 3.0 | 0.00 | 0.00 | 0.00 | 61 | 1013.7 |
| 20260904021548 | 87 | 191 | 2.0 | 2.0 | 0.00 | 0.00 | 0.00 | 60 | 1013.7 |
| 20260904021043 | 87 | 134 | 1.0 | 2.0 | 0.00 | 0.00 | 0.00 | 60 | 1013.7 |
| 20260904020538 | 87 | 182 | 2.0 | 6.0 | 0.00 | 0.00 | 0.00 | 60 | 1013.6 |
| 20260904020033 | 87 | 130 | 2.0 | 3.0 | 0.00 | 0.00 | 0.00 | 59 | 1013.5 |
| 20260904015527 | 87 | 138 | 1.0 | 4.0 | 0.00 | 0.00 | 0.00 | 59 | 1013.3 |
| 20260904015026 | 87 | 64 | 2.0 | 3.0 | 0.00 | 0.00 | 0.00 | 58 | 1013.4 |
| 20260904014520 | 87 | 204 | 1.0 | 3.0 | 0.00 | 0.00 | 0.00 | 58 | 1013.4 |
| 20260904014016 | 88 | 47 | 2.0 | 4.0 | 0.00 | 0.00 | 0.00 | 58 | 1013.1 |
| 20260904013512 | 88 | 111 | 0.0 | 4.0 | 0.00 | 0.00 | 0.00 | 57 | 1013.0 |
| 20260904013009 | 88 | 135 | 2.0 | 6.0 | 0.00 | 0.00 | 0.00 | 57 | 1012.9 |
| 20260904012508 | 88 | 132 | 1.0 | 8.0 | 0.00 | 0.00 | 0.00 | 57 | 1013.2 |
| 20260904012003 | 88 | 143 | 1.0 | 6.0 | 0.00 | 0.00 | 0.00 | 57 | 1013.0 |
| 20260904011457 | 89 | 144 | 1.0 | 3.0 | 0.00 | 0.00 | 0.00 | 57 | 1012.8 |
| 20260904010952 | 89 | 141 | 1.0 | 2.0 | 0.00 | 0.00 | 0.00 | 57 | 1012.7 |
| 20260904010449 | 89 | 39 | 2.0 | 9.0 | 0.00 | 0.00 | 0.00 | 56 | 1012.7 |
| 20260904005948 | 89 | 267 | 2.0 | 4.0 | 0.00 | 0.00 | 0.00 | 55 | 1012.6 |
| 20260904005444 | 90 | 74 | 3.0 | 6.0 | 0.00 | 0.00 | 0.00 | 55 | 1012.4 |
| 20260904004939 | 90 | 69 | 1.0 | 3.0 | 0.00 | 0.00 | 0.00 | 54 | 1012.3 |